Погода в Охотске

Погода в Охотске : погода сейчас, прогноз погоды и архив. Всё, что Вы хотите узнать о погоде в Охотске!

Хотите узнать прогноз погоды в Охотске? Тогда Вам сюда: Погода в Охотске

Поиск расширенной информации на нашем сайте:

Другие новости

Новости СМИ2

Главная страница сайта

Новости сайта

02.10.2013

Напоминаем, что на нашем новом сайте вы можете получить высокодетализированные прогнозы погоды по пунктам России, СНГ и мира (включающие важные для авиации метеовеличины, такие как направление и скорость ветра, видимость, явления погоды, количество и форма облачности, нижняя и верхняя граница облачности), а также ознакомиться с разнообразными материалами по авиационной метеорологии и подборкой полезных ссылок на эту тему.

Сайт Метеоцентр.Азия посвящён разработке технологий оптимизации авиаметеорологического обслуживания, включая проектирование и перспективное создание нескольких автоматизированных авиаметеорологических систем:
- система выпуска высокодетальных прогностических карт явлений погоды для нижнего воздушного пространства по России и ближнему зарубежью;
- система верификации прогнозов TAF (выпускаемых синоптиками официальных АМСГ РФ и ближнего зарубежья) и AUTOTAF (выпускаемых сайтом Метеоцентр.Азия) - выявление ошибок, онлайн-сопоставление с фактической погодой METAR, автоматическое внесение коррективов в прогнозы при резком отклонении фактической погоды от прогноза, подсчёт оправдываемости прогнозов по элементам и в целом;
- система обработки, анализа и отображения авиаметеорологической информации для применения провайдерами метеорологической информации.

Рекомендуем: сайт знакомств владикавказ подробнее mylove.ru сайт знакомств

Погода в Охотске - сегодня

Время (UTC), дата Ветер
(°,м/с) 
Видим.   Явления Облачность Т
(°С)
Тd
(°С)
f(%) Тe
(°С)
Pmin
(гПа)
dP
(гПа)
Po
(мм)
O2
(г/м3)
Тmin Tmax R s Состояние
почвы
12 25.05.17 160 (Ю) 9-12{12}  20000 м    10/10 300 м кучево-дожд. 
[Cb calv]
+4.5 +1.6 81 +1  1006.7  -0.4  755  299           
15 25.05.17 140 (ЮВ) 11-14{14}  10 км  слаб. ливневой дождь  10/10 300 м кучево-дожд. 
[Cb cap]
+4.4 +1.8 83 1005.9  -0.8  754  299           
18 25.05.17 160 (Ю) 11-14{15}  10 км  слаб. ливневой дождь  10/10 300 м кучево-дожд. 
[Cb cap]
+3.8 +1.5 85 1004.8  -1.1  753  299           
21 25.05.17 150 (ЮВ) 7{14}  10 км  слаб. ливневой дождь  10/10 300 м кучево-дожд. 
[Cb cap]
+3 +1.9 92 1004.8  753  300  +3      влажная 
00 26.05.17 160 (Ю) 4000 м  слаб. морось{ливн. осадки}  10/10 300 м 
[St]
+3.2 +2.5 95 +1  1004.4  -0.5  753  299           
03 26.05.17 140 (ЮВ) 4000 м  дымка{морось}  10/10 330 м 
[St]
+3.2 +2.5 95 +3  1004.4  0.1  753  299           
06 26.05.17 150 (ЮВ) 20000 м  {морось}  9/9 300 м 
[St]
+5.3 +2.8 84 +4  1004.2  0.1  753  297           
09 26.05.17 140 (ЮВ) 20000 м    9/9 300 м 
[St]
+4 +1.9 86 +1  1004.5  0.3  753  299    +5.4  0.3     
12 26.05.17 180 (Ю) 20000 м    9/8 300 м кучево-дожд., средняя 
[Cb calv|Ac und]
+3.4 +2 91 +3  1005.8  1.2  754  300           
15 26.05.17 040 (СВ) 20000 м    9/9 300 м 
[St]
+2.7 +1.2 90 +3  1005.6  0.1  754  301           
18 26.05.17 320 (СЗ) 0500 м  туман  ?/?  
+1.1 +0.8 98 +2  1005.6  0.1  754  302           
21 26.05.17 260 (З) 4000 м  в посл. час туман  10/10 300 м 
[St]
+3.3 +2.1 92 +3  1006.1  0.6  754  300  +1.1        влажная 
03 27.05.17 220 (ЮЗ) 4000 м  дымка  9/9 300 м 
[St]
+5 +2.9 86 +2  1004.9  -0.7  753  298           
06 27.05.17 200 (Ю) 4000 м  дымка  9/9 300 м 
[St]
+4.8 +2.6 86 +4  1004.8  0.1  753  298           
12 27.05.17 180 (Ю) 20000 м    10/10 720 м кучево-дожд. 
[Cb calv]
+4.3 +3 91 +3  1004.7  0.5  753  298           
15 27.05.17 210 (ЮЗ) 20000 м    10/10 300 м 
[St]
+3.5 +2.4 92 +4  1004.8  0.1  753  299           
03 28.05.17 180 (Ю) 0500 м  туман  ?/?  
+4.4 +3.3 93 +2  1003.6  0.1  752  298           
09 28.05.17 140 (ЮВ) 8-10{10}  4000 м  дымка  10/10 300 м 
[St]
+4.4 +3.9 97 +1  1003.5  0.3  752  298    +7       
21 28.05.17 360 (С) 20000 м    10/10 300 м 
[St]
+5.7 +4.9 95 +5  1008.5  0.4  756  298  +3.7        влажная 
00 29.05.17 150 (ЮВ) 20000 м    10/8 300 м средняя, верхняя 
[Cu Sc|Ac trans|Ci fib]
+7.1 +5.3 88 +5  1009.4  0.9  757  296           
03 29.05.17 140 (ЮВ) 20000 м    9/9 300 м 
[St]
+6.3 +4.9 91 +5  1010.3  0.9  757  297           
06 29.05.17 150 (ЮВ) 20000 м    10/5 300 м средняя, верхняя 
[St|Ac trans|Ci fib]
+7.9 +4.5 79 +9  1010.7  0.3  758  296           
12 29.05.17 310 (СЗ) 20000 м    10/8 600 м кучево-дожд., средняя, верхняя 
[Cb calv|Ac trans|Ci fib]
+6.5 +3.7 82 +6  1012.3  0.8  759  298           
15 29.05.17 350 (С) 20000 м    8/3 600 м средняя, верхняя 
[Sc|Ac trans|Ci fib]
+4.5 +3.2 91 +4  1012.7  0.4  759  300           
18 29.05.17 350 (С) 20000 м    4/1 600 м средняя, верхняя 
[Sc|Ac lent|Ci fib]
+2.3 +1.1 92 +1  1012.5  -0.2  759  303           
Время (UTC), дата Ветер
(°,м/с) 
Видим.   Явления Облачность Т
(°С)
Тd
(°С)
f(%) Тe
(°С)
Pmin
(гПа)
dP
(гПа)
Po
(мм)
O2
(г/м3)
Тmin Tmax R s Состояние
почвы

Для получения пояснительной информации подведите курсор к названию столбца.

ПОГОДА в Охотске - архив

Всё, что Вы хотите узнать о погоде в Охотске - удобно и подробно!

Выберите нужную дату (начиная с 1 января 2015* года) и нажмите кнопку "Найти".
Будут отображены архивные сводки погоды по пункту Охотск, начиная с указанной даты.


Отображать данные в формате CSV (для использования в таблицах Excel)


Внимание! Наш архив погоды предназначен исключительно для личного некоммерческого использования в познавательных целях. Если Вам необходимы официальные справки о состоянии погоды (для производственных, юридических, коммерческих и т.п. целей), обращайтесь в органы Росгидромета.

*Примечание: данная дата относится к архиву по метеостанциям СССР (Россия, СНГ, Балтия).
Архив по метеостанциям Зарубежной Европы и Азии (кроме Китая) хранится 10 дней, по другим регионам земного шара (Китай, Африка, Америка, Австралия, Океания) - 1 день.

Охотск - район местоположения метеостанции


Название, широта, долгота, высота метеостанции:
Охотск 59.4°ш. 143.2°д. 6 м над ур. моря [Российская Федерация]

Дополнительная информация

В oтличие oт бoльшинства пoгoдных сайтoв мы публикуем пoдрoбную метеoинфoрмацию в детальнoм прoфессиoнальнoм фoрмате.

Характеристики температуры и влажнoсти вoздуха измеряются на высoте 2 м в тени вдали oт зданий и деревьев.
Скoрoсть ветра измеряется на высoте 10 м (на урoвне рoста челoвека скoрoсть ветра ниже в 1.5-2 раза). Если метеoстанция нахoдится в гoрoде или в лесу, тo скoрoсть ветра занижена на 2-4 м/с пo сравнению с oткрытым местoм. Скoрoсть ветра над акватoриями крупных рек и oзёр, а также на вершинах хoлмoв на 2-5 м/с выше, чем в oбычных услoвиях.
Атмoсфернoе давление в разных тoчках местнoсти мoжет значительнo oтличаться oт давления на метеoстанции, в зависимoсти oт услoвий рельефа (при пoдъёме на 10 м давление пoнижается примернo на 1 мм рт.ст.).